This demonstration page uses our WeatherBlox Daily Observations layout. Learn more.

Left ArrowRight Arrow

31.31129, -92.44514

Hourly Observations for December 7, 2015

Temp ( °F °C ) Dew Point ( °F °C ) Humidity (%) Winds ( mph kmh ) Pressure ( in mb ) Visibility ( mi km ) Precip ( " mm )
12:53 am 00:53 Clear 44 6.7 43 6.1 96 96 Calm 30.30 1026 7 11 0.00 0.00
1:53 am 01:53 Clear 42 5.6 41 5 96 96 WNW 3 6 30.30 1026 8 13 0.00 0.00
2:53 am 02:53 Clear 41 5 41 5 100 100 WNW 3 6 30.29 1026 8 13 0.00 0.00
3:53 am 03:53 Clear 42 5.6 41 5 96 96 W 3 6 30.29 1026 8 13 0.00 0.00
4:53 am 04:53 Clear with Mist and Fog 40 4.4 39 3.9 97 97 WNW 3 6 30.28 1026 6 10 0.00 0.00
5:53 am 05:53 Clear with Mist and Fog 41 5 40 4.4 96 96 Calm 30.29 1026 6 10 0.00 0.00
6:53 am 06:53 Clear 40 4.4 40 4.4 100 100 Calm 30.30 1026 7 11 0.00 0.00
7:14 am 07:14 Sunny with Mist and Fog 38 3.3 38 3.3 100 100 NNW 3 6 30.30 1026 2 3 0.00 0.00
7:35 am 07:35 Sunny with Mist and Fog 41 5 41 5 100 100 NNW 3 6 30.30 1026 3 4 0.00 0.00
7:42 am 07:42 Sunny with Mist and Fog 42 5.6 42 5.6 100 100 Calm 30.30 1026 3 5 0.00 0.00
7:53 am 07:53 Sunny with Mist and Fog 44 6.7 43 6.1 96 96 Calm 30.31 1027 3 5 0.00 0.00
8:53 am 08:53 Sunny 49 9.4 47 8.3 93 93 Calm 30.32 1027 7 11 0.00 0.00
9:53 am 09:53 Sunny 55 12.8 50 10 83 83 SSE 3 6 30.32 1027 9 14 0.00 0.00
10:53 am 10:53 Sunny 60 15.6 48 8.9 65 65 Calm 30.31 1026 10 16 0.00 0.00
11:53 am 11:53 Sunny 65 18.3 48 8.9 54 54 VRB 3 6 30.27 1025 10 16 0.00 0.00
12:53 pm 12:53 Sunny 65 18.3 49 9.4 56 56 SW 3 6 30.23 1024 10 16 0.00 0.00
1:53 pm 13:53 Sunny 67 19.4 49 9.4 53 53 WNW 5 7 30.20 1023 10 16 0.00 0.00
2:53 pm 14:53 Sunny 67 19.4 49 9.4 53 53 VRB 3 6 30.18 1022 10 16 0.00 0.00
3:53 pm 15:53 Sunny 67 19.4 49 9.4 53 53 SW 5 7 30.17 1022 10 16 0.00 0.00
4:53 pm 16:53 Sunny 64 17.8 51 10.6 63 63 SW 5 7 30.18 1022 10 16 0.00 0.00
5:53 pm 17:53 Clear 55 12.8 50 10 83 83 Calm 30.17 1022 10 16 0.00 0.00
6:53 pm 18:53 Clear 54 12.2 50 10 87 87 SE 3 6 30.19 1022 10 16 0.00 0.00
7:53 pm 19:53 Clear 51 10.6 48 8.9 89 89 Calm 30.19 1022 10 16 0.00 0.00
8:53 pm 20:53 Clear 48 8.9 48 8.9 100 100 ESE 3 6 30.19 1022 8 13 0.00 0.00
9:53 pm 21:53 Clear 48 8.9 47 8.3 96 96 Calm 30.17 1022 7 11 0.00 0.00
10:53 pm 22:53 Clear with Mist and Fog 46 7.8 45 7.2 96 96 Calm 30.17 1022 6 10 0.00 0.00
11:53 pm 23:53 Clear with Mist and Fog 45 7.2 44 6.7 97 97 Calm 30.15 1021 5 8 0.00 0.00

Powered by AerisWeather